Miscellaneous Local Product
Issued by NWS Hastings, NE

Home | Current Version | Previous Version | Text Only | Print | Product List | Glossary On
Versions: 1 2 3 4 5 6 7 8 9 10 11 12 13 14 15 16 17 18 19 20 21 22 23 24 25 26 27 28 29 30 31 32 33 34 35 36 37 38 39 40 41 42 43 44 45 46 47 48 49 50
000
AXUS43 KGID 130402
MISGRI

GID CWA HOURLY WEATHER ROUNDUP
NATIONAL WEATHER SERVICE HASTINGS NE
1100 PM CDT SAT JUL 12 2014

NOTE: "FAIR" INDICATES FEW OR NO CLOUDS BELOW 12,000 FEET WITH NO
SIGNIFICANT WEATHER AND/OR OBSTRUCTIONS TO VISIBILITY.

...SOUTH CENTRAL NEBRASKA...

CITY           SKY/WX    TMP DP  RH WIND       PRES   REMARKS
GRAND ISLAND   CLEAR     70  67  90 CALM      30.08R
HASTINGS       MOCLDY    73  66  78 N8        30.07R
KEARNEY        CLEAR     70  66  88 N3        30.10R
ORD            CLEAR     67  64  90 CALM      30.09R
YORK           PTCLDY    70  68  94 N7        30.05F
AURORA         CLEAR     70  69  96 N5        30.07R
LEXINGTON      PTCLDY    69  68  94 N3        30.12R
HOLDREGE       CLEAR     69  66  90 N5        30.10R
HEBRON         MOCLDY    78  70  76 N13       30.04R THUNDER

...NEBRASKA PANHANDLE...

CITY           SKY/WX    TMP DP  RH WIND       PRES   REMARKS
CHADRON        PTCLDY    65  59  81 W6        30.22R
ALLIANCE       PTCLDY    68  63  84 S3        30.23R
SCOTTSBLUFF    LGT RAIN  69  65  86 NE6       30.26R
SIDNEY         MOCLDY    64  56  75 N6        30.28R

...WESTERN AND NORTH CENTRAL NEBRASKA...

CITY           SKY/WX    TMP DP  RH WIND       PRES   REMARKS
VALENTINE      CLEAR     68  65  90 CALM      30.14R
AINSWORTH      CLEAR     68  63  84 N5        30.14S
ONEILL         CLEAR     70  64  80 CALM      30.10R
BROKEN BOW     CLEAR     68  66  93 NW5       30.13R
IMPERIAL       MOCLDY    71  65  81 N6        30.17F
NORTH PLATTE   CLEAR     68  63  84 CALM      30.15R
MCCOOK         PTCLDY    71  66  84 N6        30.12R

...EASTERN NEBRASKA...

CITY           SKY/WX    TMP DP  RH WIND       PRES   REMARKS
NORFOLK        CLEAR     66  64  93 W3        30.06R
SO SIOUX CITY  CLEAR     68  67  96 CALM      30.03R
TEKAMAH        CLEAR     67  65  93 NW5       30.01F
ALBION         CLEAR     67  64  93 CALM      30.08R
OMAHA EPPLEY   PTCLDY    72  67  84 N7        30.00F
MILLARD        CLEAR     74  68  82 N5        30.00F
LINCOLN        MOCLDY    74  67  78 NE9       30.01F
NEBRASKA CITY  HVY RAIN  73  73 100 N10       30.00R
BEATRICE       CLOUDY    72  69  90 N10       30.01S
FALLS CITY     PTCLDY    77  74  90 NW6       29.96S

...NORTHERN KANSAS...

CITY           SKY/WX    TMP DP  RH WIND       PRES   REMARKS
GOODLAND       CLOUDY    73  66  78 NE8       30.19R
HILL CITY      MOCLDY    76  67  73 N8        30.09R
NORTON         MOCLDY    73  63  68 N8        30.10R
SMITH CENTER   MOCLDY    73  66  78 N12G18    30.06R
BELOIT         MOCLDY    79  72  78 N12       30.00R
HAYS           MOCLDY    77  64  65 N16       30.04R
RUSSELL        MOCLDY    79  71  76 N14       30.01R
CONCORDIA      PTCLDY    78  73  84 NE8       30.01R
SALINA         CLOUDY    83  67  58 S6        29.97R
TOPEKA         PTCLDY    84  68  58 S10       29.97R



USA.gov is the U.S. government's official web portal to all federal, state and local government web resources and services.